Skip Page Navigation
NASA JPL Caltech
NASA Logo - Jet Propulsion Laboratory + View the NASA Portal
+ Center for Near-Earth Object Studies
JPL Home Earth Solar System Stars & Galaxies Technology
JPL Solar System Dynamics
BODIES ORBITS EPHEMERIDES TOOLS PHYSICAL DATA DISCOVERY FAQ SITE MAP
IMPORTANT: The SSD Announcement email list is now available. Major changes are coming in the near future, including possible hostname and/or URL changes. To be notified of such changes, subscribe to this email list.

Please visit this page for more details.


JPL Small-Body Database Browser
Search: [ help ]  
183274 (2002 TS258)
Classification: Main-belt Asteroid          SPK-ID: 2183274
Ephemeris | Orbit Diagram | Orbital Elements | Mission Design | Physical Parameters | Discovery Circumstances | Close-Approach Data ]

[ show orbit diagram ]
Orbital Elements at Epoch 2458600.5 (2019-Apr-27.0) TDB
Reference: JPL 9 (heliocentric ecliptic J2000)
 Element Value Uncertainty (1-sigma)   Units 
e .2572303388421967 6.729e-08  
a 2.613547798696003 1.6459e-08 au
q 1.941264012857153 1.6881e-07 au
i 7.853854507455652 6.0122e-06 deg
node 49.78253897896798 5.136e-05 deg
peri 9.996240953423689 5.3873e-05 deg
M 314.730888267689 1.6957e-05 deg
tp 2458794.563370449344
(2019-Nov-07.06337045)
7.387e-05 TDB
period 1543.277760228262
4.23
1.4578e-05
3.991e-08
d
yr
n .2332697387842572 2.2035e-09 deg/d
Q 3.285831584534853 2.0692e-08 au
  Orbit Determination Parameters
   # obs. used (total)      251  
   data-arc span      7623 days (20.87 yr)  
   first obs. used      1998-12-17  
   last obs. used      2019-10-31  
   planetary ephem.      DE431  
   SB-pert. ephem.      SB431-N16  
   condition code      0  
   norm. resid. RMS      .6341  
   source      ORB  
   producer      Otto Matic  
   solution date      2019-Nov-07 20:40:02  

Additional Information
 Earth MOID = .95386 au 
 Jupiter MOID = 2.08036 au 
 T_jup = 3.348 
[ show covariance matrix ]

Ephemeris | Orbit Diagram | Orbital Elements | Mission Design | Physical Parameters | Discovery Circumstances | Close-Approach Data ]

Physical Parameter Table
Parameter Symbol Value Units Sigma Reference Notes
absolute magnitude H 16.7   n/a MPO410901  

183274 (2002 TS258)          Discovered 2002-Oct-09 by LINEAR at Socorro
Reference: 20080420/Numbers.arcLast Updated: 2008-04-23

[ show close-approach data ]
Ephemeris | Orbit Diagram | Orbital Elements | Mission Design | Physical Parameters | Discovery Circumstances | Close-Approach Data ]
ABOUT SSD CREDITS/AWARDS PRIVACY/COPYRIGHT GLOSSARY LINKS
FirstGov
(server date/time)  
NASA Home Page
Site Manager:   Ryan S. Park
Webmaster  Alan B. Chamberlin